Vorticity
10 11 12 11 12 12 12 12 11 11 11 10 10 10 10 9 9 8 9 10 10 9 9 8 7 6 6 6 8 9 10 11 12 11 10 8 7 8 8 8 6 5 6 7 7 6 5 6 6 6 6 6
8 8 8 9 9 10 11 11 11 11 11 10 10 10 10 11 10 10 10 10 11 10 10 9 9 7 6 7 7 7 8 9 10 11 10 7 6 7 7 7 4 3 6 8 5 5 5 4 5 5 5 5
7 7 7 7 6 6 7 7 7 8 9 9 9 10 10 11 12 11 11 11 11 11 11 10 9 8 7 7 7 7 6 7 8 9 9 8 5 6 6 6 5 -0 4 10 4 3 5 3 4 4 4 4
8 8 8 8 8 7 7 6 6 5 6 7 7 8 9 9 10 11 11 12 12 12 12 12 11 9 7 6 7 7 7 6 6 6 7 8 7 6 5 5 5 -1 -1 9 5 1 3 3 4 3 4 4
8 8 9 9 9 9 8 8 8 7 6 7 7 7 8 8 8 8 9 10 12 13 13 13 11 11 10 7 6 6 7 7 6 6 6 6 7 6 6 5 5 -0 -2 6 7 3 3 3 4 3 3 4
6 6 7 8 8 9 8 8 8 8 8 7 7 7 7 8 8 8 8 8 9 11 13 14 13 11 11 10 8 6 6 6 6 6 7 7 5 5 6 5 5 3 -0 3 6 5 4 4 4 4 2 2
10 8 7 6 7 7 7 8 7 7 7 7 7 7 8 8 8 8 8 8 7 8 10 13 15 14 12 11 10 9 7 6 5 5 8 9 6 6 5 4 5 6 3 2 5 5 4 3 4 4 3 2
10 11 11 9 9 8 8 8 7 7 7 7 7 7 7 7 7 7 8 8 7 7 7 8 11 13 14 14 11 11 10 8 7 4 6 8 7 7 4 3 5 6 5 4 4 5 4 3 2 2 2 2
5 6 7 8 8 8 8 8 7 7 8 8 8 7 7 8 8 8 7 8 8 7 6 6 6 8 10 14 14 12 12 10 10 7 5 7 7 6 4 4 7 5 4 7 6 5 5 3 2 2 1 2
6 5 5 5 5 5 6 7 7 6 6 7 7 8 7 7 8 8 8 8 8 7 7 7 7 7 7 9 11 13 13 11 11 11 8 8 8 5 2 3 7 6 4 6 7 6 6 5 2 1 2 2
4 4 4 5 5 4 4 5 6 6 6 6 6 7 6 6 6 6 8 7 7 8 8 7 6 7 7 7 8 9 11 12 12 12 11 10 10 8 3 2 4 5 6 7 8 6 5 6 4 3 2 3
2 2 2 3 4 4 4 3 3 5 5 6 6 6 6 5 5 5 6 7 7 7 8 8 6 5 6 7 9 8 7 8 9 11 13 12 11 11 8 5 3 2 4 7 9 8 7 6 5 4 4 3
3 3 3 2 3 3 3 3 2 3 2 4 5 5 6 5 5 5 4 5 6 6 6 7 7 7 5 4 6 9 9 8 7 7 10 12 11 11 10 9 7 3 2 5 8 8 9 8 5 4 5 4
7 7 7 6 6 5 4 4 3 3 2 2 3 3 4 5 5 5 5 5 5 5 6 6 6 5 6 6 4 5 8 9 10 7 7 10 11 10 11 11 10 7 3 2 4 6 7 8 6 3 5 5
12 11 10 10 10 9 8 8 7 5 5 4 3 3 3 3 4 4 5 5 5 5 5 6 6 4 4 5 5 5 6 6 8 9 7 8 10 10 9 9 9 8 7 4 3 6 8 8 6 4 5 6
10 10 10 9 8 9 9 9 10 9 9 7 6 5 4 3 3 3 4 4 5 5 5 5 5 6 4 3 3 4 7 7 6 8 8 7 10 11 9 8 9 9 9 10 9 8 10 11 9 5 4 5
8 8 9 9 8 7 6 6 7 8 9 10 9 8 7 6 5 3 3 4 4 4 4 4 5 6 7 6 4 3 3 5 6 7 8 6 7 11 12 10 10 10 9 10 11 10 9 11 11 9 6 5
4 5 6 7 8 8 8 7 6 6 6 7 9 9 9 8 8 6 4 3 4 4 4 3 3 4 6 8 7 6 3 2 3 5 6 6 4 7 11 12 12 11 10 9 9 8 9 11 11 10 9 6
-0 0 1 2 4 6 7 8 7 7 6 6 7 8 8 8 9 10 9 6 4 4 4 4 3 2 3 5 6 7 6 4 3 2 4 6 4 3 5 8 10 11 11 11 10 8 7 10 12 11 10 9
-0 -1 -1 -1 0 2 4 6 7 8 8 7 6 6 6 6 7 9 10 10 8 4 4 5 4 4 3 2 3 5 7 8 6 4 5 7 7 6 4 3 5 7 8 10 12 12 8 6 10 11 11 11
4 3 3 2 1 1 1 2 4 6 8 8 8 7 6 5 5 6 8 11 11 8 5 4 4 5 5 4 3 3 5 7 8 9 8 6 7 7 6 6 4 4 5 6 8 10 11 8 7 10 11 12
5 5 6 7 5 4 3 1 0 0 2 5 7 8 8 7 4 3 4 7 10 11 8 6 5 4 5 6 5 4 4 5 7 10 8 5 6 6 6 6 5 3 3 5 7 7 10 11 9 8 9 10
5 6 6 8 8 8 8 6 4 2 0 0 2 5 6 8 9 7 4 3 4 8 10 8 6 5 5 5 5 4 4 4 4 5 4 3 4 6 6 7 7 8 5 2 4 6 6 7 9 8 7 8
7 7 8 9 9 9 10 10 10 8 6 3 1 2 3 4 6 9 10 8 4 3 6 9 9 7 6 5 5 5 4 4 4 3 3 3 3 4 5 5 3 6 10 7 2 3 3 3 4 6 7 8
7 7 7 8 8 8 8 8 9 10 10 9 5 3 3 3 2 2 6 9 9 7 4 5 7 8 9 7 5 4 4 4 5 5 5 5 6 5 4 5 1 -0 6 8 4 1 1 4 6 6 6 6
8 9 8 9 9 8 7 7 7 9 9 9 9 6 3 3 3 2 2 3 6 9 8 6 4 5 7 8 8 6 4 3 3 4 5 6 8 7 5 6 6 5 2 3 8 7 1 1 5 6 4 4
12 13 14 15 17 16 15 15 14 14 14 12 11 10 7 4 4 2 2 2 3 4 6 7 7 5 5 5 7 7 5 3 3 2 2 4 6 7 7 5 5 4 0 -4 -1 5 3 -2 0 4 3 2
19 21 23 24 26 28 28 28 26 25 25 23 20 18 14 12 11 8 3 2 4 4 3 4 6 6 6 6 6 6 6 4 3 2 2 2 2 4 6 7 4 2 1 -4 -10 -6 2 2 -0 0 1 2
25 26 28 29 31 33 35 38 39 38 38 36 35 34 29 24 21 19 14 7 5 6 5 3 3 4 5 6 7 7 6 5 3 2 2 2 3 3 3 6 7 5 5 5 1 -1 2 5 3 1 3 7
25 26 28 31 34 36 37 40 42 45 46 45 45 45 43 39 35 31 27 21 14 13 12 7 4 3 4 4 6 7 7 6 5 3 3 3 3 4 4 4 5 5 5 7 9 7 4 3 4 3 3 4
26 30 34 35 37 38 38 38 39 41 44 47 46 46 47 46 45 42 39 35 27 23 23 20 13 7 5 4 4 5 6 7 6 4 4 4 5 5 5 5 4 4 4 4 5 7 8 6 3 2 2 2
Height
5717 5717 5717 5717 5716 5716 5717 5717 5717 5717 5717 5717 5717 5718 5718 5719 5721 5722 5723 5723 5722 5723 5724 5724 5724 5725 5727 5728 5729 5731 5732 5734 5735 5735 5737 5738 5738 5739 5741 5744 5745 5746 5746 5746 5749 5751 5752 5754 5755 5756 5758 5759
5712 5712 5712 5712 5711 5710 5711 5711 5711 5711 5710 5711 5711 5711 5712 5712 5714 5715 5716 5716 5716 5717 5718 5718 5718 5719 5720 5721 5722 5724 5726 5727 5729 5729 5731 5733 5734 5734 5736 5739 5740 5741 5740 5741 5744 5746 5747 5749 5750 5752 5753 5754
5706 5707 5706 5706 5705 5705 5705 5705 5705 5704 5704 5704 5705 5705 5706 5706 5707 5708 5709 5710 5710 5710 5711 5712 5712 5713 5714 5715 5716 5717 5719 5720 5722 5723 5725 5727 5728 5729 5731 5733 5736 5737 5735 5735 5739 5740 5742 5744 5745 5747 5748 5750
5701 5701 5700 5700 5700 5699 5699 5699 5698 5698 5698 5698 5699 5699 5699 5700 5701 5702 5702 5703 5703 5703 5705 5706 5706 5707 5708 5709 5709 5711 5712 5714 5715 5717 5718 5720 5722 5724 5726 5728 5731 5733 5731 5731 5734 5735 5737 5738 5740 5742 5744 5745
5695 5695 5695 5694 5694 5693 5693 5693 5692 5692 5692 5692 5692 5692 5693 5694 5695 5695 5696 5696 5697 5697 5698 5699 5700 5700 5701 5703 5703 5704 5705 5707 5709 5710 5711 5713 5716 5718 5721 5723 5725 5727 5727 5726 5729 5731 5732 5733 5735 5737 5739 5740
5689 5689 5689 5689 5688 5687 5687 5687 5686 5686 5685 5685 5685 5685 5686 5687 5688 5688 5689 5690 5690 5691 5691 5693 5694 5694 5695 5696 5698 5698 5699 5700 5702 5703 5704 5706 5709 5711 5715 5717 5719 5720 5721 5721 5723 5725 5727 5728 5730 5732 5733 5735
5683 5683 5682 5682 5682 5681 5681 5681 5680 5680 5679 5679 5679 5679 5679 5680 5680 5681 5682 5683 5684 5684 5685 5686 5687 5688 5688 5689 5691 5692 5693 5694 5695 5696 5697 5699 5702 5704 5708 5711 5712 5713 5714 5716 5717 5719 5721 5723 5725 5727 5728 5729
5677 5676 5676 5675 5675 5675 5675 5674 5674 5674 5673 5673 5673 5673 5672 5672 5673 5674 5674 5675 5676 5677 5678 5679 5680 5681 5682 5683 5684 5685 5687 5688 5688 5690 5690 5692 5695 5698 5703 5704 5704 5706 5707 5709 5710 5712 5715 5717 5720 5722 5724 5725
5669 5669 5669 5668 5668 5667 5667 5667 5667 5667 5667 5666 5666 5666 5666 5666 5666 5667 5667 5667 5669 5670 5671 5672 5673 5674 5675 5676 5677 5678 5680 5681 5682 5683 5684 5685 5687 5691 5695 5695 5696 5699 5700 5701 5704 5706 5709 5711 5715 5717 5719 5720
5660 5660 5661 5661 5660 5660 5660 5660 5660 5660 5660 5659 5659 5659 5659 5659 5659 5659 5659 5659 5661 5662 5663 5665 5666 5667 5668 5668 5670 5671 5672 5674 5675 5676 5677 5679 5681 5685 5687 5687 5689 5692 5692 5694 5696 5700 5702 5704 5708 5710 5712 5713
5653 5652 5652 5652 5652 5652 5652 5652 5652 5652 5652 5652 5652 5651 5651 5652 5652 5652 5651 5651 5653 5654 5656 5657 5658 5659 5660 5661 5663 5663 5665 5666 5668 5669 5670 5672 5675 5678 5679 5680 5682 5684 5685 5686 5689 5693 5695 5697 5701 5703 5704 5705
5646 5645 5644 5643 5643 5644 5644 5644 5644 5644 5644 5644 5644 5644 5644 5644 5644 5644 5644 5644 5645 5646 5648 5648 5650 5651 5652 5654 5655 5656 5657 5659 5660 5662 5663 5665 5668 5671 5672 5673 5675 5677 5677 5679 5682 5685 5687 5690 5694 5695 5697 5698
5637 5637 5636 5635 5635 5635 5635 5635 5635 5635 5635 5635 5636 5636 5636 5636 5636 5636 5636 5637 5637 5638 5639 5640 5641 5643 5644 5646 5647 5648 5649 5651 5652 5654 5655 5657 5660 5663 5665 5666 5668 5669 5670 5672 5674 5677 5680 5683 5686 5688 5689 5691
5627 5627 5627 5626 5626 5626 5626 5626 5626 5626 5626 5626 5627 5627 5627 5627 5627 5628 5628 5629 5629 5629 5630 5631 5632 5634 5636 5638 5639 5640 5642 5644 5645 5646 5648 5650 5652 5655 5657 5659 5660 5662 5663 5665 5667 5670 5673 5675 5678 5680 5681 5684
5617 5616 5616 5616 5616 5616 5616 5616 5616 5616 5616 5617 5617 5617 5618 5618 5618 5618 5619 5620 5621 5621 5621 5622 5623 5626 5628 5630 5631 5633 5634 5636 5637 5638 5640 5642 5644 5646 5649 5651 5652 5655 5656 5658 5660 5663 5665 5667 5670 5672 5674 5676
5607 5606 5605 5604 5604 5604 5605 5605 5605 5606 5606 5607 5607 5607 5607 5608 5608 5609 5609 5610 5612 5613 5613 5614 5615 5617 5619 5621 5624 5625 5626 5627 5628 5630 5631 5634 5637 5639 5641 5642 5645 5648 5650 5652 5654 5655 5657 5659 5662 5664 5666 5668
5596 5595 5594 5593 5592 5592 5592 5592 5593 5594 5594 5595 5596 5596 5596 5597 5597 5598 5599 5600 5602 5603 5605 5605 5606 5608 5610 5612 5614 5616 5616 5618 5620 5622 5623 5626 5629 5631 5633 5635 5638 5639 5642 5644 5646 5648 5650 5651 5654 5655 5657 5660
5585 5584 5583 5582 5581 5581 5580 5580 5581 5581 5582 5583 5584 5584 5585 5586 5585 5586 5588 5590 5591 5592 5595 5596 5597 5598 5600 5602 5604 5606 5607 5609 5612 5613 5614 5617 5620 5623 5625 5627 5629 5631 5634 5636 5637 5640 5642 5644 5646 5647 5649 5651
5573 5573 5572 5571 5570 5569 5569 5569 5569 5569 5569 5570 5571 5572 5573 5574 5574 5574 5575 5578 5581 5582 5583 5585 5587 5589 5590 5592 5593 5595 5597 5600 5603 5604 5606 5608 5610 5613 5617 5619 5620 5623 5626 5627 5629 5632 5634 5636 5638 5640 5642 5643
5560 5560 5559 5559 5558 5558 5557 5557 5557 5557 5557 5558 5559 5560 5561 5562 5562 5563 5564 5565 5568 5571 5572 5574 5576 5578 5580 5582 5583 5585 5587 5589 5593 5595 5597 5599 5601 5603 5607 5610 5612 5615 5617 5619 5621 5623 5625 5628 5630 5633 5635 5637
5547 5546 5545 5544 5543 5543 5544 5544 5545 5545 5545 5546 5547 5548 5549 5550 5551 5551 5552 5553 5555 5558 5561 5563 5565 5567 5568 5571 5573 5575 5577 5578 5582 5585 5588 5590 5592 5593 5596 5600 5604 5606 5608 5610 5613 5614 5616 5619 5621 5625 5628 5629
5533 5531 5530 5528 5527 5527 5528 5530 5531 5532 5533 5534 5535 5536 5537 5537 5538 5540 5540 5541 5542 5545 5548 5551 5553 5555 5557 5559 5562 5565 5567 5569 5571 5574 5577 5580 5583 5585 5587 5589 5593 5598 5600 5602 5603 5605 5607 5609 5612 5616 5618 5620
5517 5516 5514 5512 5512 5511 5512 5514 5515 5516 5518 5520 5522 5524 5525 5525 5525 5525 5527 5528 5530 5532 5535 5538 5541 5543 5545 5547 5550 5554 5556 5559 5562 5564 5566 5569 5573 5576 5578 5581 5583 5588 5591 5592 5593 5595 5597 5599 5602 5606 5608 5612
5501 5499 5497 5496 5496 5496 5496 5497 5498 5499 5501 5503 5507 5509 5511 5512 5512 5511 5512 5514 5516 5519 5522 5524 5527 5529 5532 5535 5538 5542 5546 5549 5552 5554 5556 5559 5563 5566 5569 5572 5574 5577 5580 5582 5584 5586 5588 5590 5593 5597 5600 5603
5484 5481 5480 5479 5479 5480 5480 5479 5479 5481 5482 5484 5488 5492 5494 5497 5499 5499 5498 5499 5501 5504 5508 5511 5513 5515 5518 5522 5526 5530 5534 5538 5541 5544 5546 5548 5552 5555 5558 5562 5565 5568 5569 5570 5572 5575 5580 5583 5585 5588 5591 5596
5467 5464 5462 5460 5461 5461 5461 5461 5461 5461 5463 5465 5468 5472 5475 5478 5481 5483 5485 5486 5487 5490 5493 5497 5500 5502 5505 5508 5512 5517 5522 5526 5529 5532 5535 5538 5540 5543 5547 5551 5556 5558 5558 5558 5562 5568 5571 5572 5575 5579 5583 5587
5448 5446 5444 5442 5441 5442 5441 5441 5441 5441 5443 5446 5448 5451 5455 5457 5460 5464 5468 5471 5473 5476 5479 5482 5486 5489 5491 5494 5498 5503 5508 5512 5517 5520 5523 5526 5529 5532 5536 5540 5543 5546 5548 5551 5555 5557 5557 5561 5567 5569 5573 5580
5429 5427 5425 5423 5421 5421 5420 5420 5421 5421 5422 5425 5427 5431 5434 5436 5438 5442 5448 5453 5456 5459 5465 5468 5471 5474 5477 5480 5484 5488 5493 5498 5503 5507 5511 5514 5518 5521 5524 5527 5531 5534 5539 5543 5544 5543 5545 5552 5555 5557 5567 5577
5411 5408 5406 5404 5402 5402 5401 5400 5401 5400 5401 5404 5406 5410 5413 5414 5416 5420 5426 5433 5436 5440 5447 5452 5456 5460 5463 5466 5469 5473 5479 5484 5488 5493 5498 5502 5505 5509 5512 5515 5519 5522 5527 5531 5532 5532 5536 5540 5543 5553 5566 5568
5394 5391 5389 5387 5385 5384 5383 5383 5383 5382 5382 5385 5388 5389 5392 5394 5396 5400 5405 5411 5417 5422 5427 5433 5439 5444 5448 5452 5455 5459 5464 5469 5474 5479 5484 5488 5491 5496 5500 5503 5507 5510 5515 5518 5521 5522 5525 5530 5536 5546 5552 5552
5379 5376 5374 5372 5369 5369 5368 5368 5369 5368 5367 5370 5371 5372 5374 5376 5378 5381 5386 5392 5399 5404 5408 5413 5420 5426 5431 5436 5441 5444 5448 5454 5459 5465 5470 5474 5478 5483 5487 5490 5493 5499 5504 5506 5508 5511 5515 5521 5526 5532 5536 5540